Flag for Ireland Weather past 2 weeks in Dublin, Ireland

Now
41 °F

Passing clouds.


Feels Like: 31 °F
Forecast: N/A
Wind: 24 mph from West

Location: Dublin Airport

Current Time: Dec 19, 2014 at 11:45:54 PM

Latest Report: Dec 19, 2014 at 11:00 PM


Visibility: N/A

Pressure: 30.12 "Hg

Humidity: 87%

Dew point: 37 °F

Location of DublinLocation

Historic Weather in Dublin — Graph

°F

Dublin temperature yesterday

Maximum temperature yesterday: 55 °F (at 12:30 PM)
Minimum temperature yesterday: 45 °F (at 11:30 PM)
Average temperature yesterday: 51 °F

Past Weeks' High & Low Weather Summary

 TemperatureHumidityPressure
High55 °F (Dec 18, 12:30 PM)100% (Dec 5, 12:30 AM)30.36 "Hg (Dec 5, 12:30 AM)
Low30 °F (Dec 13, 4:30 AM)66% (Dec 10, 1:00 PM)29.24 "Hg (Dec 12, 12:30 AM)
Average42 °F89%29.85 "Hg
* Reported Dec 4 10:30 PM — Dec 19 10:30 PM, Dublin, Weather by CustomWeather, © 2014

Note: Actual official high and low records may vary slightly from our data, if they occured in-between our weather recording intervals... More about our weather records

Advertising

Dublin weather history for previous 24 hours

 ConditionsComfort  
Time TempWeatherWind HumidityBarometerVisibility
10:30 PM
Dec 19
41 °FPassing clouds.25 mph87%30.12 "HgN/A
10:00 PM41 °FPassing clouds.26 mph87%30.12 "HgN/A
9:30 PM41 °FPassing clouds.26 mph87%30.12 "HgN/A
9:00 PM41 °FPassing clouds.28 mph81%30.09 "HgN/A
8:30 PM41 °FPassing clouds.26 mph81%30.09 "HgN/A
8:00 PM41 °FPassing clouds.26 mph81%30.09 "HgN/A
7:30 PM41 °FPassing clouds.25 mph87%30.07 "HgN/A
7:00 PM41 °FPassing clouds.25 mph87%30.07 "HgN/A
6:30 PM41 °FPassing clouds.23 mph87%30.07 "HgN/A
6:00 PM41 °FPassing clouds.22 mph87%30.07 "HgN/A
5:30 PM43 °FPassing clouds.24 mph81%30.07 "HgN/A
5:00 PM43 °FPassing clouds.24 mph81%30.04 "HgN/A
4:30 PM43 °FPassing clouds.23 mph81%30.04 "HgN/A
4:00 PM45 °FScattered clouds.24 mph71%30.01 "HgN/A
3:30 PM45 °FScattered clouds.22 mph76%30.01 "HgN/A
3:00 PM45 °FScattered clouds.23 mph76%30.01 "HgN/A
2:30 PM45 °FScattered clouds.24 mph76%29.98 "HgN/A
2:00 PM45 °FPassing clouds.28 mph76%29.98 "HgN/A
1:30 PM45 °FPassing clouds.28 mph76%29.98 "HgN/A
1:00 PM45 °FPassing clouds.23 mph71%29.98 "HgN/A
12:30 PM45 °FScattered clouds.26 mph71%29.95 "HgN/A
12:00 PM45 °FScattered clouds.21 mph71%29.95 "HgN/A
11:30 AM43 °FPassing clouds.24 mph81%29.95 "HgN/A
11:00 AM43 °FPassing clouds.22 mph76%29.95 "HgN/A
10:30 AM43 °FPassing clouds.22 mph76%29.92 "HgN/A
10:00 AM41 °FPartly sunny.20 mph81%29.92 "HgN/A
9:30 AM41 °FPassing clouds.23 mph81%29.89 "HgN/A
9:00 AM41 °FPassing clouds.23 mph81%29.89 "HgN/A
8:30 AM41 °FPassing clouds.23 mph81%29.86 "HgN/A
8:00 AM41 °FPassing clouds.25 mph81%29.83 "HgN/A
7:30 AM41 °FClear.24 mph81%29.80 "Hg10 mi
7:00 AM41 °FClear.24 mph81%29.80 "Hg10 mi
6:30 AM41 °FClear.25 mph81%29.80 "Hg10 mi
6:00 AM41 °FClear.26 mph81%29.77 "Hg10 mi
5:30 AM41 °FClear.22 mph81%29.77 "Hg10 mi
5:00 AM41 °FClear.24 mph81%29.77 "Hg10 mi
4:30 AM41 °FClear.26 mph81%29.74 "Hg10 mi
4:00 AM41 °FClear.28 mph81%29.74 "Hg10 mi
3:30 AM41 °FClear.29 mph81%29.74 "Hg10 mi
3:00 AM41 °FClear.29 mph81%29.71 "Hg10 mi
2:30 AM41 °FClear.28 mph87%29.71 "Hg10 mi
2:00 AM41 °FClear.25 mph87%29.71 "Hg10 mi
1:30 AM43 °FPassing clouds.23 mph87%29.71 "HgN/A
1:00 AM43 °FPassing clouds.22 mph87%29.71 "HgN/A
12:30 AM43 °FPassing clouds.24 mph87%29.71 "HgN/A
12:00 AM45 °FPassing clouds.24 mph87%29.68 "HgN/A
11:30 PM
Dec 18
45 °FPassing clouds.22 mph87%29.68 "HgN/A
11:00 PM46 °FPartly cloudy.20 mph87%29.68 "HgN/A
Weather by CustomWeather, © 2014

See weather overviewHow to use our weather pages